Regional Weather Roundup
Issued by NWS

Home | Current Version | Previous Version | Text Only | Print | Product List | Glossary Off
Versions: 1 2 3 4 5 6 7 8 9 10 11 12 13 14 15 16 17 18 19 20 21 22 23 24 25 26 27 28 29 30 31 32 33 34 35 36 37 38 39 40 41 42 43 44 45 46 47 48 49 50

000
ASUS43 KLOT 260521
RWRIL

ILLINOIS REGIONAL WEATHER ROUNDUP
NATIONAL WEATHER SERVICE CHICAGO/ROMEOVILLE IL
1200 AM CDT TUE MAY 26 2015

NOTE: "FAIR" INDICATES FEW OR NO CLOUDS BELOW 12,000 FEET WITH NO
SIGNIFICANT WEATHER AND/OR OBSTRUCTIONS TO VISIBILITY.

* THESE STATIONS ARE NOT UNDER NWS QUALITY CONTROL. THEY ALSO MAY NOT
  REPORT WEATHER SUCH AS PRECIPITATION OR FOG.

ILZ001-002-007-009-015-016-024-260600-
NORTHWEST ILLINOIS

CITY           SKY/WX    TMP DP  RH WIND       PRES   REMARKS
MOLINE         PTCLDY    68  61  78 SE7       29.88F
STERLING*      PTCLDY    68  61  77 S5        29.91S
SAVANNA*       CLEAR     67  61  83 S5        29.88F
$$

ILZ003-004-008-010-011-017-018-260600-
NORTH CENTRAL ILLINOIS

CITY           SKY/WX    TMP DP  RH WIND       PRES   REMARKS
ROCKFORD       PTCLDY    72  57  59 S6        29.92F
FREEPORT*      PTCLDY    66  60  83 S8        29.92F
ROCHELLE*      CLEAR     65  61  89 S7        29.93F
DE KALB*       PTCLDY    62  58  88 S10       29.95F
PERU*          CLEAR     70  64  80 S10       29.94S
$$

ILZ005-006-012>014-019>023-260600-
NORTHEAST ILLINOIS

CITY           SKY/WX    TMP DP  RH WIND       PRES   REMARKS
CHICAGO-OHARE  PTCLDY    68  58  70 S9        29.94F
CHICAGO-MIDWAY CLEAR     74  63  68 S13       29.95F
AURORA         PTCLDY    69  58  67 S9        29.95F
LANSING*       CLEAR     70  60  70 S8        29.97F
JOLIET*        CLEAR     72  64  77 S7        29.96F
WAUKEGAN       PTCLDY    67  59  75 S9        29.92F
DUPAGE AIRPORT CLEAR     67  59  75 S7        29.94F
KANKAKEE*      CLEAR     69  64  83 S12       29.99S
WHEELING       PTCLDY    68  58  70 S6        29.95F
MORRIS*        CLEAR     67  61  79 S7        29.94F
ROMEOVILLE*    CLEAR     69  61  75 S10       29.96F
NORTHERLY ISL    N/A     73  61  65 S14         N/A
$$

LMZ740>746-260600-
SOUTHERN LAKE MICHIGAN

STATION/POSITION SKY/WX   TEMP    WIND        PRES    VSBY  WAVE
                          AIR SEA DIR/SP/G                  HT/PER
                          (F)     (DEG/KT/KT) (MB)    (MI)  (FT/S)
SOUTHERN BUOY              45 38  170/ 10/ 14 1014.5R         1
HARRISON CRIB              72     200/ 20/ 22   N/A
BURNHAM HARBOR             73     200/ 11/ 16   N/A
CALUMET HARBOR             73     190/  8/ 11   N/A
BURNS HARBOR               73     190/ 12/ 17 1015.6R
MICHIGAN CITY              72     170/ 12/ 17   N/A
MICHIGAN CITY 6N           64 52  210/ 10/ 12   N/A           1/ 2
ST. JOSEPH                 63 55  210/ 10/ 10   N/A           1/ 3
$$

ILZ025>027-034>036-040-047-049-050-058-095>099-260600-
WEST-CENTRAL ILLINOIS

CITY           SKY/WX    TMP DP  RH WIND       PRES   REMARKS
QUINCY         PTCLDY    72  65  78 S9        29.89S
GALESBURG*     PTCLDY    69  65  86 SE9       29.90S
MACOMB*        MOCLDY    71  67  84 S9        29.92S
JACKSONVILLE*  PTCLDY    74  68  82 SE10      29.92F
PITTSFIELD*    MOCLDY    73  66  81 SE10      29.92S
$$

ILZ028>032-037-038-041>044-048-051>054-059>061-260600-
CENTRAL ILLINOIS

CITY           SKY/WX    TMP DP  RH WIND       PRES   REMARKS
PONTIAC        CLEAR     72  66  81 S13       29.97S
BLOOMINGTON    PTCLDY    70  66  86 S15       29.98F
DECATUR        PTCLDY    71  66  84 S13       29.98F
PEORIA         MOCLDY    74  66  76 S13G23    29.93F
LACON*         PTCLDY    72  65  78 S13       29.93R
LINCOLN*       MOCLDY    72  66  82 S9        29.93F
SPRINGFIELD    PTCLDY    72  66  81 SE15      29.94F
TAYLORVILLE    PTCLDY    68  64  88 SE9       29.97F
$$

ILZ033-039-045-046-055>057-062-063-260600-
EAST-CENTRAL ILLINOIS

CITY           SKY/WX    TMP DP  RH WIND       PRES   REMARKS
CHAMPAIGN      PTCLDY    70  65  84 S14       30.00F
DANVILLE*      CLEAR     68  65  89 S8        29.99F
RANTOUL*       PTCLDY    71  66  86 S9        30.00S
MATTOON        MOCLDY    68  65  90 S8        30.00F
PARIS*         PTCLDY    68  65  90 SE6       30.04S
$$

ILZ079-100>102-260600-
SOUTHWEST ILLINOIS

CITY           SKY/WX    TMP DP  RH WIND       PRES   REMARKS
ALTON          MOCLDY    71  71 100 SE12      29.96F
BELLEVILLE     MOCLDY    70  70 100 SE10      29.95F
CAHOKIA*       CLOUDY    73  67  81 SE12G21   29.94F
SPARTA*        MOCLDY    68  67  94 SE7       29.99S
$$

ILZ064>066-069>071-074>076-080>082-084>086-088>090-092>094-260600-
SOUTH-CENTRAL ILLINOIS

CITY           SKY/WX    TMP DP  RH WIND       PRES   REMARKS
CARBONDALE     MOCLDY    70  67  90 S9        29.99F
CAIRO*         MOCLDY    71  68  91 SE12      30.00S
EFFINGHAM*     MOCLDY    68  64  87 E7        30.02F
MARION         MOCLDY    70  68  94 SE10      30.01F
MT. VERNON     CLOUDY    70  64  83 SE6       30.01F
CENTRALIA*     PTCLDY    68  65  89 SE9       29.99F
SALEM*         MOCLDY    70  66  87 SE6       30.01S
METROPOLIS*    MOCLDY    70  70 100 SE5       30.02S
$$

ILZ067-068-072-073-078-083-087-091-260600-
SOUTHEAST ILLINOIS

CITY           SKY/WX    TMP DP  RH WIND       PRES   REMARKS
LAWRENCEVILLE  PTCLDY    67  65  93 SE8       30.05R
FLORA*         PTCLDY    67  65  93 SE9       30.02F
FAIRFIELD*     MOCLDY    68  66  93 SE7       30.02S
HARRISBURG*    MOCLDY    69  69  99 SE9       30.03F
ROBINSON*      CLEAR     67  65  93 S9        30.05S
CARMI*         PTCLDY    68  63  83 SE8       30.03F
$$

ABBREVIATIONS USED IN REMARKS
   TC - TEMPERATURE IN CELSIUS
  WCI - WIND CHILL INDEX
   HX - HEAT INDEX
  VSB - VISIBILITY
$$




USA.gov is the U.S. government's official web portal to all federal, state and local government web resources and services.